Regional Weather Roundup
Issued by NWS

Home | Current Version | Previous Version | Text Only | Print | Product List | Glossary On
Versions: 1 2 3 4 5 6 7 8 9 10 11 12 13 14 15 16 17 18 19 20 21 22 23 24 25 26 27 28 29 30 31 32 33 34 35 36 37 38 39 40 41 42 43 44 45 46 47 48 49 50
000
ASUS44 KOUN 040910
RWROK

WEATHER ROUNDUP FOR OKLAHOMA
NATIONAL WEATHER SERVICE NORMAN OK
400 AM CDT SAT JUL 04 2015

NOTE: "FAIR" INDICATES FEW OR NO CLOUDS BELOW 12,000 FEET WITH NO
      SIGNIFICANT WEATHER AND/OR OBSTRUCTIONS TO VISIBILITY.

OKZ001>007-009>012-014-015-017-041000-
NORTHWEST OKLAHOMA AND THE PANHANDLE

CITY           SKY/WX    TMP DP  RH WIND       PRES   REMARKS
GAGE           PTCLDY    67  66  97 S3        30.00F
GUYMON         MOCLDY    65  62  90 S6        30.02F
ENID/WOODRING  CLEAR     70  66  88 E6        29.95S
$$

OKZ016-021>023-033>039-044-045-041000-
SOUTHWEST OKLAHOMA

CITY           SKY/WX    TMP DP  RH WIND       PRES   REMARKS
LAWTON/REGL    MOCLDY    73  68  84 NE5       29.94S
LAWTON/FT SILL MOCLDY    71  70  96 N3        29.93S
FREDERICK      MOCLDY    72  70  93 NE6       29.91F
CLINTON        PTCLDY    71  66  84 CALM      29.99F
HOBART         PTCLDY    68  66  93 N6        29.97S
ALTUS AFB      PTCLDY    68  68 100 N6        29.94F
$$

OKZ018>020-024>031-041000-
CENTRAL OKLAHOMA

CITY           SKY/WX    TMP DP  RH WIND       PRES   REMARKS
OKLAHOMA CITY  PTCLDY    72  69  90 CALM      29.95F
OKC/WILEY POST CLEAR     75  68  78 E5        29.95F
STILLWATER     MOCLDY    71  68  90 NE5       29.95S
GUTHRIE        CLEAR     71  68  90 E3        29.95S
$$

OKZ008-013-054>072-041000-
NORTHEAST OKLAHOMA

CITY           SKY/WX    TMP DP  RH WIND       PRES   REMARKS
TULSA          PTCLDY    70  69  97 NW5       29.93F
TULSA/JONES    MOCLDY    73  70  90 CALM      29.93S
PONCA CITY     CLEAR     67  65  93 CALM      29.96S
BARTLESVILLE   CLEAR     68  68 100 CALM      29.96S
MUSKOGEE       CLEAR     70  68  93 CALM      29.93S
$$

OKZ032-040>043-046>053-073>077-041000-
SOUTH CENTRAL/SOUTHEAST OKLAHOMA

CITY           SKY/WX    TMP DP  RH WIND       PRES   REMARKS
ARDMORE/DWNTWN MOCLDY    73  72  94 CALM      29.92F
MCALESTER      MOCLDY    71  69  93 S3        29.93F
$$



USA.gov is the U.S. government's official web portal to all federal, state and local government web resources and services.